577  
ASUS42 KKEY 170610  
RWRKEY  
 
FLORIDA REGIONAL WEATHER ROUNDUP FOR THE FLORIDA KEYS  
NATIONAL WEATHER SERVICE KEY WEST FLORIDA  
200 AM EDT THU APR 17 2014  
   
..SOUTH FLORIDA AND THE KEYS
 
 
 
CITY SKY/WX TMP DP RH WIND PRES REMARKS
 
FORT MYERS FAIR 69 63 81 E9 30.07F  
SW REGIONAL AP FAIR 69 62 78 NE7 30.08F  
NAPLES FAIR 72 69 90 E13 30.06F  
MIAMI FAIR 76 69 79 E12 30.05F  
WEST KENDALL FAIR 73 70 90 E10 30.05F  
HOMESTEAD FAIR 76 69 77 E7 30.05F  
MARATHON FAIR 78 71 79 E9 30.04S  
BOCA CHICA NAS FAIR 77 72 84 E10 30.04S  
KEY WEST INTL FAIR 76 72 87 E12 30.04F  
   
..INTERNATIONAL WEATHER
 
 
 
CITY SKY/WX TMP DP RH WIND PRES REMARKS
 
NASSAU BAHAMAS MOCLDY 79 73 83 E3 30.06S  
CANCUN MEXICO MOCLDY 79 72 78 SE8 29.98S  
COZUMEL MEXICO PTCLDY 70 70 100 CALM 29.98F  
 
ADJACENT COASTAL WATERS...  
 
STATION/POSITION TIME SKY/WX TEMP WIND PRES WAVE
 
AIR SEA DIR/SP/G HT/PER  
(UTC) (F) (DEG/KT/KT) (MB) (FT/S)  
PULASKI SHOAL LI NOT AVBL  
SAND KEY NOT AVBL  
SOMBRERO KEY 0600 77 90/ 17/ 19 1017.3F  
LONG KEY 0600 78 80 100/ 16/ 18 1017.9F  
MOLASSES REEF 0600 77 78 90/ 16/ 17 1017.0F  
FOWEY ROCKS 0600 77 78 80/ 13/ 15 1017.4F  
BUOY 42080 NOT AVBL  
 

 
 
CLICK HERE TO GO TO PREVIOUS BULLETINS.

The Nexlab FL Page Main Text Page